| time (UTC) | temp C | wind direction | speed KPH | gust KPH | rain 1hr cm | rain 24hr cm | rain mn cm | humidity % | barometer mb |
| 20260508155715 | 15 | 0 | 1.6 | 4.8 | 0.00 | 0.00 | 0.00 | 60 | 1013.8 |
| 20260508155213 | 14 | 0 | 3.2 | 4.8 | 0.00 | 0.03 | 0.00 | 60 | 1013.8 |
| 20260508154714 | 14 | 0 | 3.2 | 4.8 | 0.00 | 0.03 | 0.00 | 61 | 1013.8 |
| 20260508154213 | 13 | 109 | 1.6 | 4.8 | 0.00 | 0.05 | 0.00 | 62 | 1013.9 |
| 20260508153213 | 13 | 0 | 0.0 | 0.0 | 0.00 | 0.05 | 0.00 | 61 | 1013.8 |
| 20260508152714 | 14 | 0 | 0.0 | 0.0 | 0.00 | 0.05 | 0.00 | 61 | 1013.8 |
| 20260508152214 | 13 | 0 | 0.0 | 1.6 | 0.00 | 0.05 | 0.00 | 62 | 1013.9 |
| 20260508151714 | 13 | 0 | 0.0 | 4.8 | 0.00 | 0.08 | 0.00 | 63 | 1014.1 |
| 20260508151214 | 13 | 0 | 0.0 | 4.8 | 0.00 | 0.08 | 0.00 | 64 | 1014.1 |
| 20260508150716 | 12 | 0 | 1.6 | 4.8 | 0.00 | 0.08 | 0.00 | 65 | 1014.1 |
| 20260508150214 | 12 | 0 | 1.6 | 4.8 | 0.00 | 0.08 | 0.00 | 65 | 1014.2 |
| 20260508145713 | 12 | 0 | 1.6 | 4.8 | 0.00 | 0.08 | 0.00 | 68 | 1014.2 |
| 20260508144713 | 11 | 74 | 1.6 | 3.2 | 0.00 | 0.08 | 0.00 | 69 | 1014.1 |
| 20260508144214 | 10 | 67 | 0.0 | 3.2 | 0.00 | 0.08 | 0.00 | 70 | 1014.2 |
| 20260508143209 | 9 | 31 | 0.0 | 3.2 | 0.00 | 0.08 | 0.00 | 73 | 1014.1 |
| 20260508142711 | 9 | 30 | 0.0 | 3.2 | 0.00 | 0.08 | 0.00 | 74 | 1014.2 |
| 20260508142209 | 8 | 26 | 0.0 | 3.2 | 0.00 | 0.08 | 0.00 | 77 | 1014.2 |
| 20260508141709 | 8 | 20 | 0.0 | 4.8 | 0.00 | 0.08 | 0.00 | 78 | 1014.2 |
| 20260508141210 | 8 | 18 | 0.0 | 4.8 | 0.00 | 0.08 | 0.00 | 80 | 1014.2 |
| 20260508140209 | 8 | 39 | 0.0 | 4.8 | 0.00 | 0.08 | 0.00 | 85 | 1014.2 |
| 20260508135710 | 8 | 316 | 0.0 | 1.6 | 0.00 | 0.08 | 0.00 | 85 | 1014.0 |
| 20260508135209 | 7 | 316 | 0.0 | 1.6 | 0.00 | 0.08 | 0.00 | 85 | 1014.0 |
| 20260508134709 | 7 | 317 | 0.0 | 0.0 | 0.00 | 0.08 | 0.00 | 85 | 1013.9 |
| 20260508134209 | 7 | 317 | 0.0 | 1.6 | 0.00 | 0.08 | 0.00 | 85 | 1014.0 |
| 20260508133708 | 7 | 317 | 0.0 | 3.2 | 0.00 | 0.08 | 0.00 | 85 | 1013.9 |
| 20260508133208 | 7 | 318 | 0.0 | 4.8 | 0.00 | 0.08 | 0.00 | 85 | 1014.0 |
| 20260508132705 | 7 | 316 | 0.0 | 4.8 | 0.00 | 0.08 | 0.00 | 85 | 1013.9 |
| 20260508132205 | 7 | 327 | 0.0 | 0.0 | 0.00 | 0.08 | 0.00 | 85 | 1013.8 |
| 20260508131703 | 7 | 328 | 0.0 | 0.0 | 0.00 | 0.08 | 0.00 | 85 | 1013.8 |
| 20260508131204 | 6 | 327 | 0.0 | 0.0 | 0.00 | 0.08 | 0.00 | 85 | 1013.7 |
| 20260508130703 | 6 | 327 | 0.0 | 0.0 | 0.00 | 0.08 | 0.00 | 85 | 1013.7 |
| 20260508130204 | 6 | 327 | 0.0 | 0.0 | 0.00 | 0.08 | 0.00 | 85 | 1013.7 |
| 20260508125703 | 6 | 327 | 0.0 | 0.0 | 0.00 | 0.08 | 0.00 | 85 | 1013.6 |
| 20260508125202 | 6 | 329 | 0.0 | 0.0 | 0.00 | 0.08 | 0.00 | 85 | 1013.6 |
| 20260508124204 | 6 | 329 | 0.0 | 0.0 | 0.00 | 0.08 | 0.00 | 84 | 1013.6 |
| 20260508123703 | 7 | 327 | 0.0 | 0.0 | 0.00 | 0.08 | 0.00 | 85 | 1013.6 |
| 20260508123202 | 7 | 327 | 0.0 | 0.0 | 0.00 | 0.08 | 0.00 | 85 | 1013.4 |
| 20260508122703 | 7 | 327 | 0.0 | 0.0 | 0.00 | 0.08 | 0.00 | 85 | 1013.6 |
| 20260508122202 | 7 | 327 | 0.0 | 0.0 | 0.00 | 0.08 | 0.00 | 85 | 1013.4 |
| 20260508121702 | 7 | 327 | 0.0 | 0.0 | 0.00 | 0.08 | 0.00 | 85 | 1013.7 |
| 20260508120703 | 6 | 327 | 0.0 | 0.0 | 0.00 | 0.08 | 0.00 | 84 | 1013.7 |
| 20260508120203 | 7 | 327 | 0.0 | 0.0 | 0.00 | 0.08 | 0.00 | 84 | 1013.8 |
| 20260508115706 | 7 | 327 | 0.0 | 3.2 | 0.00 | 0.08 | 0.00 | 84 | 1013.8 |
| 20260508115208 | 7 | 327 | 0.0 | 4.8 | 0.00 | 0.08 | 0.00 | 84 | 1013.7 |
| 20260508114708 | 7 | 327 | 0.0 | 4.8 | 0.00 | 0.08 | 0.00 | 84 | 1013.6 |
| 20260508114206 | 7 | 312 | 0.0 | 0.0 | 0.00 | 0.08 | 0.00 | 84 | 1013.6 |
| 20260508113706 | 7 | 312 | 0.0 | 0.0 | 0.00 | 0.08 | 0.00 | 84 | 1013.4 |
| 20260508112702 | 7 | 312 | 0.0 | 0.0 | 0.00 | 0.08 | 0.00 | 84 | 1013.1 |
| 20260508112203 | 7 | 312 | 0.0 | 0.0 | 0.00 | 0.08 | 0.00 | 84 | 1013.1 |
| 20260508111703 | 7 | 312 | 0.0 | 0.0 | 0.00 | 0.08 | 0.00 | 84 | 1013.2 |
| 20260508110704 | 7 | 312 | 0.0 | 0.0 | 0.00 | 0.08 | 0.00 | 84 | 1013.1 |
| 20260508110205 | 7 | 311 | 0.0 | 0.0 | 0.00 | 0.08 | 0.00 | 84 | 1013.2 |
| 20260508105704 | 7 | 332 | 0.0 | 0.0 | 0.00 | 0.08 | 0.00 | 83 | 1013.2 |
| 20260508105204 | 7 | 334 | 0.0 | 0.0 | 0.00 | 0.08 | 0.00 | 83 | 1013.1 |
| 20260508104702 | 7 | 334 | 0.0 | 0.0 | 0.00 | 0.08 | 0.00 | 83 | 1013.2 |
| 20260508104206 | 7 | 334 | 0.0 | 0.0 | 0.00 | 0.08 | 0.00 | 82 | 1013.1 |
| 20260508103202 | 7 | 334 | 0.0 | 0.0 | 0.00 | 0.08 | 0.00 | 82 | 1013.1 |
| 20260508102702 | 7 | 334 | 0.0 | 0.0 | 0.00 | 0.08 | 0.00 | 81 | 1013.1 |
| 20260508102204 | 7 | 334 | 0.0 | 0.0 | 0.00 | 0.08 | 0.00 | 80 | 1013.1 |
| 20260508101703 | 7 | 334 | 0.0 | 0.0 | 0.00 | 0.08 | 0.00 | 79 | 1013.1 |
| 20260508101203 | 7 | 334 | 0.0 | 0.0 | 0.00 | 0.08 | 0.00 | 77 | 1013.1 |
| 20260508100702 | 7 | 334 | 0.0 | 0.0 | 0.00 | 0.08 | 0.00 | 76 | 1013.1 |
| 20260508100207 | 7 | 334 | 0.0 | 0.0 | 0.00 | 0.08 | 0.00 | 77 | 1013.0 |
| 20260508095705 | 7 | 334 | 0.0 | 0.0 | 0.00 | 0.08 | 0.00 | 76 | 1013.1 |
| 20260508095207 | 7 | 334 | 0.0 | 0.0 | 0.00 | 0.08 | 0.00 | 76 | 1013.0 |
| 20260508094708 | 8 | 334 | 0.0 | 0.0 | 0.00 | 0.08 | 0.00 | 77 | 1013.0 |
| 20260508094206 | 8 | 334 | 0.0 | 0.0 | 0.00 | 0.08 | 0.00 | 78 | 1013.0 |
| 20260508093705 | 8 | 334 | 0.0 | 0.0 | 0.00 | 0.08 | 0.00 | 76 | 1013.0 |
| 20260508092702 | 8 | 334 | 0.0 | 0.0 | 0.00 | 0.08 | 0.00 | 75 | 1013.1 |
| 20260508092203 | 8 | 334 | 0.0 | 0.0 | 0.00 | 0.08 | 0.00 | 75 | 1013.0 |
| 20260508091705 | 8 | 334 | 0.0 | 0.0 | 0.00 | 0.08 | 0.00 | 75 | 1013.0 |
| 20260508090703 | 8 | 334 | 0.0 | 1.6 | 0.00 | 0.08 | 0.00 | 75 | 1013.0 |
| 20260508090202 | 8 | 334 | 0.0 | 4.8 | 0.00 | 0.08 | 0.00 | 75 | 1013.0 |
| 20260508085703 | 8 | 334 | 1.6 | 4.8 | 0.00 | 0.08 | 0.00 | 74 | 1012.9 |
| 20260508085202 | 8 | 334 | 0.0 | 4.8 | 0.00 | 0.08 | 0.00 | 74 | 1013.0 |
| 20260508084703 | 9 | 331 | 0.0 | 0.0 | 0.00 | 0.08 | 0.00 | 75 | 1012.8 |
| 20260508083706 | 9 | 331 | 0.0 | 0.0 | 0.00 | 0.08 | 0.00 | 74 | 1012.9 |
| 20260508083201 | 9 | 331 | 0.0 | 0.0 | 0.00 | 0.08 | 0.00 | 74 | 1012.8 |
| 20260508082656 | 9 | 331 | 0.0 | 1.6 | 0.00 | 0.08 | 0.00 | 74 | 1012.9 |
| 20260508081643 | 9 | 329 | 0.0 | 0.0 | 0.00 | 0.08 | 0.00 | 71 | 1013.0 |
| 20260508081136 | 9 | 329 | 0.0 | 3.2 | 0.00 | 0.08 | 0.00 | 71 | 1012.9 |
| 20260508080634 | 9 | 329 | 1.6 | 3.2 | 0.00 | 0.08 | 0.00 | 70 | 1012.9 |
| 20260508080133 | 10 | 330 | 0.0 | 3.2 | 0.00 | 0.08 | 0.00 | 71 | 1012.9 |
| 20260508075633 | 10 | 330 | 0.0 | 1.6 | 0.00 | 0.08 | 0.00 | 71 | 1012.9 |
| 20260508075134 | 10 | 330 | 0.0 | 1.6 | 0.00 | 0.08 | 0.00 | 71 | 1012.9 |
| 20260508074633 | 10 | 321 | 0.0 | 0.0 | 0.00 | 0.08 | 0.00 | 71 | 1012.9 |
| 20260508074133 | 10 | 321 | 0.0 | 0.0 | 0.00 | 0.08 | 0.00 | 71 | 1012.9 |
| 20260508073635 | 10 | 321 | 0.0 | 0.0 | 0.00 | 0.08 | 0.00 | 71 | 1012.8 |
| 20260508073133 | 10 | 321 | 0.0 | 0.0 | 0.00 | 0.08 | 0.00 | 71 | 1012.8 |
| 20260508072631 | 10 | 321 | 0.0 | 0.0 | 0.00 | 0.08 | 0.00 | 71 | 1012.9 |
| 20260508071631 | 10 | 317 | 0.0 | 0.0 | 0.00 | 0.08 | 0.00 | 71 | 1012.9 |
| 20260508070633 | 10 | 317 | 0.0 | 0.0 | 0.00 | 0.13 | 0.00 | 69 | 1012.7 |
| 20260508070131 | 10 | 317 | 0.0 | 0.0 | 0.00 | 0.15 | 0.00 | 70 | 1012.7 |
| 20260508065631 | 10 | 317 | 0.0 | 0.0 | 0.00 | 0.18 | 0.00 | 71 | 1012.7 |
| 20260508065130 | 10 | 317 | 0.0 | 0.0 | 0.00 | 0.20 | 0.00 | 71 | 1012.7 |
| 20260508064630 | 10 | 317 | 0.0 | 0.0 | 0.00 | 0.20 | 0.00 | 71 | 1012.6 |
| 20260508064130 | 10 | 317 | 0.0 | 0.0 | 0.00 | 0.20 | 0.00 | 70 | 1012.7 |
| 20260508063623 | 10 | 317 | 0.0 | 0.0 | 0.00 | 0.20 | 0.00 | 70 | 1012.7 |
| 20260508062623 | 10 | 317 | 0.0 | 0.0 | 0.00 | 0.20 | 0.00 | 69 | 1012.7 |
| 20260508062122 | 10 | 317 | 0.0 | 0.0 | 0.00 | 0.20 | 0.00 | 69 | 1012.7 |
| 20260508061622 | 10 | 317 | 0.0 | 0.0 | 0.00 | 0.20 | 0.00 | 68 | 1012.7 |
| 20260508060621 | 10 | 317 | 0.0 | 0.0 | 0.00 | 0.20 | 0.00 | 69 | 1012.7 |
| 20260508060120 | 10 | 317 | 0.0 | 0.0 | 0.00 | 0.20 | 0.00 | 69 | 1012.6 |
| 20260508055618 | 11 | 317 | 0.0 | 0.0 | 0.00 | 0.20 | 0.20 | 69 | 1012.6 |
| 20260508054617 | 11 | 317 | 0.0 | 0.0 | 0.00 | 0.20 | 0.20 | 69 | 1012.6 |
| 20260508054118 | 11 | 317 | 0.0 | 0.0 | 0.00 | 0.20 | 0.20 | 67 | 1012.5 |
| 20260508053615 | 11 | 317 | 0.0 | 0.0 | 0.00 | 0.20 | 0.20 | 67 | 1012.4 |
| 20260508053113 | 11 | 317 | 0.0 | 0.0 | 0.00 | 0.20 | 0.20 | 67 | 1012.4 |
| 20260508052610 | 11 | 317 | 0.0 | 0.0 | 0.00 | 0.20 | 0.20 | 68 | 1012.2 |
| 20260508052108 | 11 | 317 | 0.0 | 0.0 | 0.00 | 0.20 | 0.20 | 68 | 1012.2 |
| 20260508051606 | 11 | 317 | 0.0 | 0.0 | 0.00 | 0.20 | 0.20 | 68 | 1012.2 |
| 20260508051106 | 11 | 317 | 0.0 | 0.0 | 0.00 | 0.20 | 0.20 | 66 | 1012.2 |
| 20260508050603 | 12 | 316 | 0.0 | 0.0 | 0.00 | 0.20 | 0.20 | 64 | 1012.2 |
| 20260508045603 | 12 | 316 | 0.0 | 0.0 | 0.00 | 0.20 | 0.20 | 66 | 1012.0 |
| 20260508045056 | 12 | 317 | 0.0 | 0.0 | 0.00 | 0.23 | 0.20 | 65 | 1012.0 |
| 20260508044549 | 12 | 318 | 0.0 | 0.0 | 0.00 | 0.23 | 0.20 | 65 | 1012.0 |
| 20260508044044 | 12 | 319 | 0.0 | 0.0 | 0.00 | 0.23 | 0.20 | 65 | 1012.0 |
| 20260508043538 | 12 | 320 | 0.0 | 0.0 | 0.00 | 0.23 | 0.20 | 64 | 1012.0 |
| 20260508043032 | 13 | 320 | 0.0 | 1.6 | 0.00 | 0.23 | 0.20 | 62 | 1012.0 |
| 20260508042533 | 13 | 315 | 0.0 | 3.2 | 0.00 | 0.23 | 0.20 | 58 | 1012.0 |
| 20260508041030 | 14 | 346 | 1.6 | 8.0 | 0.00 | 0.23 | 0.20 | 57 | 1011.8 |
| 20260508040530 | 15 | 240 | 1.6 | 4.8 | 0.00 | 0.23 | 0.20 | 52 | 1011.7 |
| 20260508040033 | 15 | 225 | 3.2 | 6.4 | 0.00 | 0.23 | 0.20 | 48 | 1011.6 |
| 20260508035029 | 16 | 214 | 3.2 | 8.0 | 0.00 | 0.23 | 0.20 | 47 | 1011.5 |
| 20260508034529 | 16 | 218 | 4.8 | 8.0 | 0.00 | 0.23 | 0.20 | 47 | 1011.5 |
| 20260508034030 | 15 | 215 | 4.8 | 8.0 | 0.00 | 0.23 | 0.20 | 47 | 1011.5 |
| 20260508032529 | 16 | 227 | 3.2 | 9.7 | 0.00 | 0.23 | 0.20 | 48 | 1011.4 |
| 20260508032030 | 16 | 246 | 4.8 | 9.7 | 0.00 | 0.23 | 0.20 | 48 | 1011.2 |
| 20260508031029 | 16 | 207 | 1.6 | 6.4 | 0.00 | 0.23 | 0.20 | 50 | 1011.0 |
| 20260508030529 | 16 | 194 | 1.6 | 6.4 | 0.00 | 0.23 | 0.20 | 52 | 1011.0 |
| 20260508030030 | 16 | 213 | 3.2 | 4.8 | 0.00 | 0.23 | 0.20 | 50 | 1011.2 |
| 20260508025531 | 16 | 213 | 3.2 | 8.0 | 0.00 | 0.23 | 0.20 | 51 | 1011.0 |
| 20260508025032 | 16 | 213 | 1.6 | 8.0 | 0.00 | 0.23 | 0.20 | 50 | 1011.0 |
| 20260508024532 | 17 | 216 | 0.0 | 4.8 | 0.00 | 0.23 | 0.20 | 52 | 1011.0 |
| 20260508023529 | 18 | 208 | 3.2 | 6.4 | 0.00 | 0.23 | 0.20 | 48 | 1010.9 |
| 20260508023030 | 18 | 210 | 3.2 | 6.4 | 0.00 | 0.23 | 0.20 | 44 | 1010.9 |
| 20260508022530 | 18 | 219 | 4.8 | 8.0 | 0.00 | 0.23 | 0.20 | 44 | 1010.9 |
| 20260508022029 | 18 | 218 | 3.2 | 8.0 | 0.00 | 0.23 | 0.20 | 44 | 1010.8 |
| 20260508021529 | 18 | 205 | 1.6 | 6.4 | 0.00 | 0.23 | 0.20 | 44 | 1010.8 |
| 20260508021031 | 18 | 208 | 3.2 | 6.4 | 0.00 | 0.23 | 0.20 | 44 | 1010.8 |
| 20260508020030 | 18 | 198 | 3.2 | 6.4 | 0.00 | 0.23 | 0.20 | 44 | 1010.8 |
| 20260508015530 | 18 | 195 | 3.2 | 6.4 | 0.00 | 0.23 | 0.20 | 44 | 1010.8 |
| 20260508015030 | 18 | 240 | 3.2 | 6.4 | 0.00 | 0.23 | 0.20 | 43 | 1010.9 |
| 20260508014529 | 18 | 232 | 3.2 | 6.4 | 0.00 | 0.23 | 0.20 | 43 | 1010.9 |
| 20260508013530 | 18 | 238 | 1.6 | 6.4 | 0.00 | 0.23 | 0.20 | 42 | 1011.0 |
| 20260508013030 | 19 | 243 | 1.6 | 4.8 | 0.00 | 0.23 | 0.20 | 41 | 1010.9 |
| 20260508012529 | 19 | 226 | 1.6 | 4.8 | 0.00 | 0.23 | 0.20 | 40 | 1010.9 |
| 20260508011529 | 19 | 227 | 1.6 | 4.8 | 0.00 | 0.23 | 0.20 | 42 | 1010.9 |
| 20260508010529 | 19 | 227 | 1.6 | 6.4 | 0.00 | 0.23 | 0.20 | 40 | 1011.2 |
| 20260508010029 | 19 | 226 | 3.2 | 6.4 | 0.00 | 0.23 | 0.20 | 40 | 1011.2 |
| 20260508005029 | 19 | 205 | 0.0 | 6.4 | 0.00 | 0.23 | 0.20 | 40 | 1011.3 |
| 20260508004530 | 19 | 205 | 0.0 | 4.8 | 0.00 | 0.23 | 0.20 | 40 | 1011.3 |
| 20260508004030 | 18 | 220 | 0.0 | 4.8 | 0.00 | 0.23 | 0.20 | 44 | 1011.3 |
| 20260508003529 | 18 | 192 | 0.0 | 1.6 | 0.00 | 0.23 | 0.20 | 43 | 1011.4 |
| 20260508002529 | 18 | 191 | 1.6 | 9.7 | 0.00 | 0.23 | 0.20 | 40 | 1011.3 |
| 20260508002032 | 18 | 191 | 3.2 | 9.7 | 0.00 | 0.23 | 0.20 | 40 | 1011.3 |
| 20260508001532 | 18 | 128 | 3.2 | 8.0 | 0.00 | 0.23 | 0.20 | 42 | 1011.4 |
| 20260508000529 | 18 | 134 | 3.2 | 9.7 | 0.00 | 0.23 | 0.20 | 41 | 1011.4 |
| 20260508000030 | 18 | 123 | 3.2 | 8.0 | 0.00 | 0.23 | 0.20 | 44 | 1011.4 |
| 20260507235529 | 18 | 0 | 4.8 | 9.7 | 0.00 | 0.23 | 0.20 | 44 | 1011.5 |
| 20260507235029 | 18 | 175 | 4.8 | 9.7 | 0.00 | 0.23 | 0.20 | 44 | 1011.5 |
| 20260507234529 | 17 | 145 | 3.2 | 8.0 | 0.00 | 0.23 | 0.20 | 44 | 1011.6 |
| 20260507234029 | 17 | 136 | 3.2 | 6.4 | 0.00 | 0.23 | 0.20 | 44 | 1011.7 |
| 20260507233530 | 17 | 221 | 1.6 | 6.4 | 0.00 | 0.23 | 0.20 | 46 | 1011.8 |
| 20260507233030 | 17 | 0 | 1.6 | 4.8 | 0.00 | 0.23 | 0.20 | 46 | 1011.7 |
| 20260507232529 | 17 | 216 | 1.6 | 4.8 | 0.00 | 0.23 | 0.20 | 46 | 1011.8 |
| 20260507232031 | 17 | 220 | 4.8 | 8.0 | 0.00 | 0.23 | 0.20 | 46 | 1011.7 |
| 20260507231527 | 17 | 140 | 3.2 | 8.0 | 0.00 | 0.23 | 0.20 | 46 | 1011.6 |
| 20260507231024 | 17 | 138 | 1.6 | 4.8 | 0.00 | 0.23 | 0.20 | 46 | 1011.8 |
| 20260507230524 | 17 | 140 | 1.6 | 9.7 | 0.00 | 0.23 | 0.20 | 47 | 1011.9 |
| 20260507230023 | 17 | 211 | 1.6 | 9.7 | 0.00 | 0.23 | 0.20 | 47 | 1012.0 |
| 20260507225522 | 17 | 180 | 1.6 | 4.8 | 0.00 | 0.23 | 0.20 | 47 | 1012.0 |
| 20260507225023 | 17 | 180 | 1.6 | 4.8 | 0.00 | 0.23 | 0.20 | 45 | 1011.8 |
| 20260507224522 | 18 | 229 | 1.6 | 4.8 | 0.00 | 0.23 | 0.20 | 44 | 1011.9 |
| 20260507224016 | 18 | 241 | 1.6 | 4.8 | 0.00 | 0.23 | 0.20 | 43 | 1012.0 |
| 20260507223511 | 18 | 232 | 1.6 | 6.4 | 0.00 | 0.23 | 0.20 | 42 | 1012.1 |
| 20260507223005 | 19 | 309 | 1.6 | 6.4 | 0.00 | 0.23 | 0.20 | 39 | 1012.1 |
| 20260507222505 | 19 | 0 | 1.6 | 6.4 | 0.00 | 0.23 | 0.20 | 41 | 1012.1 |
| 20260507222002 | 19 | 0 | 1.6 | 6.4 | 0.00 | 0.23 | 0.20 | 40 | 1012.1 |
| 20260507221502 | 19 | 191 | 1.6 | 6.4 | 0.00 | 0.23 | 0.20 | 39 | 1012.1 |
| 20260507221002 | 19 | 233 | 1.6 | 6.4 | 0.00 | 0.23 | 0.20 | 40 | 1012.0 |
| 20260507220503 | 19 | 180 | 1.6 | 6.4 | 0.00 | 0.23 | 0.20 | 38 | 1011.9 |
| 20260507220002 | 18 | 178 | 3.2 | 6.4 | 0.00 | 0.23 | 0.20 | 40 | 1011.8 |
| 20260507215501 | 18 | 198 | 3.2 | 6.4 | 0.00 | 0.23 | 0.20 | 40 | 1012.0 |
| 20260507214504 | 18 | 170 | 3.2 | 9.7 | 0.00 | 0.23 | 0.20 | 39 | 1012.0 |
| 20260507214005 | 17 | 173 | 4.8 | 12.9 | 0.00 | 0.23 | 0.20 | 43 | 1012.0 |
| 20260507213002 | 17 | 125 | 4.8 | 11.3 | 0.00 | 0.23 | 0.20 | 43 | 1012.4 |
| 20260507212501 | 18 | 132 | 3.2 | 4.8 | 0.00 | 0.23 | 0.20 | 40 | 1012.5 |
| 20260507211502 | 18 | 0 | 1.6 | 6.4 | 0.00 | 0.23 | 0.20 | 40 | 1012.7 |
| 20260507211001 | 19 | 335 | 1.6 | 6.4 | 0.00 | 0.23 | 0.20 | 39 | 1013.0 |
| 20260507210001 | 18 | 321 | 1.6 | 4.8 | 0.00 | 0.23 | 0.20 | 40 | 1013.1 |
| 20260507205502 | 18 | 296 | 1.6 | 6.4 | 0.00 | 0.23 | 0.20 | 41 | 1013.1 |
| 20260507204501 | 18 | 278 | 3.2 | 6.4 | 0.00 | 0.23 | 0.20 | 41 | 1012.8 |
| 20260507203459 | 17 | 128 | 3.2 | 6.4 | 0.00 | 0.23 | 0.20 | 45 | 1012.7 |
| 20260507202958 | 17 | 135 | 4.8 | 8.0 | 0.00 | 0.23 | 0.20 | 45 | 1012.6 |
| 20260507202501 | 18 | 140 | 4.8 | 8.0 | 0.00 | 0.23 | 0.20 | 45 | 1012.6 |
| 20260507201956 | 18 | 148 | 3.2 | 6.4 | 0.00 | 0.23 | 0.20 | 45 | 1012.7 |
| 20260507201453 | 17 | 210 | 3.2 | 6.4 | 0.00 | 0.23 | 0.20 | 47 | 1012.8 |
| 20260507200454 | 17 | 116 | 4.8 | 8.0 | 0.00 | 0.23 | 0.20 | 46 | 1012.7 |
| 20260507195955 | 17 | 130 | 4.8 | 8.0 | 0.00 | 0.23 | 0.20 | 46 | 1012.8 |
| 20260507195452 | 17 | 166 | 3.2 | 11.3 | 0.00 | 0.23 | 0.20 | 43 | 1012.9 |
| 20260507194950 | 18 | 182 | 4.8 | 11.3 | 0.00 | 0.23 | 0.20 | 43 | 1012.8 |
| 20260507193946 | 17 | 136 | 3.2 | 11.3 | 0.00 | 0.23 | 0.20 | 43 | 1012.9 |
| 20260507193447 | 17 | 191 | 3.2 | 8.0 | 0.00 | 0.23 | 0.20 | 47 | 1012.9 |
| 20260507192946 | 17 | 99 | 4.8 | 16.1 | 0.00 | 0.23 | 0.20 | 47 | 1013.0 |
| 20260507192446 | 17 | 167 | 4.8 | 16.1 | 0.00 | 0.23 | 0.20 | 47 | 1013.0 |
| 20260507191449 | 17 | 0 | 3.2 | 12.9 | 0.00 | 0.23 | 0.20 | 47 | 1013.1 |
| 20260507190949 | 16 | 0 | 4.8 | 12.9 | 0.00 | 0.23 | 0.20 | 49 | 1013.2 |
| 20260507190449 | 16 | 0 | 4.8 | 11.3 | 0.00 | 0.23 | 0.20 | 52 | 1013.2 |
| 20260507185949 | 16 | 121 | 4.8 | 11.3 | 0.00 | 0.23 | 0.20 | 52 | 1013.3 |
| 20260507184443 | 16 | 142 | 4.8 | 12.9 | 0.00 | 0.23 | 0.20 | 50 | 1013.4 |
| 20260507183946 | 16 | 217 | 3.2 | 12.9 | 0.00 | 0.23 | 0.20 | 52 | 1013.6 |
| 20260507183444 | 15 | 200 | 3.2 | 11.3 | 0.00 | 0.23 | 0.20 | 53 | 1013.6 |
| 20260507182444 | 15 | 119 | 3.2 | 9.7 | 0.00 | 0.23 | 0.20 | 55 | 1013.3 |
| 20260507181441 | 15 | 196 | 3.2 | 14.5 | 0.00 | 0.23 | 0.20 | 56 | 1013.6 |
| 20260507180939 | 15 | 206 | 3.2 | 14.5 | 0.00 | 0.23 | 0.20 | 58 | 1013.4 |
| 20260507180442 | 15 | 186 | 4.8 | 8.0 | 0.00 | 0.23 | 0.20 | 58 | 1013.4 |
| 20260507175941 | 14 | 136 | 4.8 | 9.7 | 0.00 | 0.23 | 0.20 | 59 | 1013.3 |
| 20260507175441 | 14 | 125 | 4.8 | 9.7 | 0.00 | 0.23 | 0.20 | 60 | 1013.3 |
| 20260507174940 | 14 | 119 | 3.2 | 8.0 | 0.00 | 0.23 | 0.20 | 65 | 1013.3 |
| 20260507173440 | 13 | 128 | 3.2 | 4.8 | 0.00 | 0.23 | 0.20 | 69 | 1013.3 |
| 20260507172935 | 13 | 128 | 3.2 | 4.8 | 0.00 | 0.23 | 0.20 | 68 | 1013.3 |
| 20260507172435 | 13 | 128 | 3.2 | 4.8 | 0.00 | 0.23 | 0.20 | 68 | 1013.4 |
| 20260507171936 | 13 | 130 | 3.2 | 4.8 | 0.00 | 0.23 | 0.20 | 68 | 1013.6 |
| 20260507171436 | 13 | 130 | 3.2 | 6.4 | 0.00 | 0.23 | 0.20 | 68 | 1013.4 |
| 20260507170935 | 13 | 130 | 3.2 | 6.4 | 0.00 | 0.23 | 0.20 | 68 | 1013.6 |
| 20260507165936 | 12 | 221 | 1.6 | 8.0 | 0.00 | 0.23 | 0.20 | 71 | 1013.6 |
| 20260507165437 | 12 | 221 | 3.2 | 8.0 | 0.03 | 0.23 | 0.20 | 72 | 1013.7 |
| 20260507164935 | 12 | 245 | 1.6 | 8.0 | 0.03 | 0.23 | 0.20 | 71 | 1013.8 |
| 20260507164433 | 12 | 188 | 1.6 | 6.4 | 0.05 | 0.23 | 0.20 | 75 | 1013.8 |
| 20260507163932 | 11 | 182 | 1.6 | 4.8 | 0.05 | 0.23 | 0.20 | 75 | 1013.8 |
| 20260507163432 | 11 | 0 | 4.8 | 9.7 | 0.05 | 0.23 | 0.20 | 74 | 1013.8 |
| 20260507162931 | 11 | 136 | 3.2 | 9.7 | 0.05 | 0.23 | 0.20 | 74 | 1013.9 |
| 20260507161932 | 11 | 28 | 0.0 | 0.0 | 0.08 | 0.23 | 0.20 | 76 | 1014.0 |
| 20260507161432 | 11 | 26 | 0.0 | 0.0 | 0.08 | 0.23 | 0.20 | 75 | 1014.1 |
| 20260507160432 | 11 | 71 | 0.0 | 1.6 | 0.08 | 0.23 | 0.20 | 74 | 1013.9 |